This is the latest recevied weather packets stored in our database for station/object HB9MIR-13. If no packets are shown the sender has not sent any weather packets the latest 1 day(s).
| Time | Temp. | Humidity | Pressure | Rain* | Wind** | Luminosity | Snow |
|---|---|---|---|---|---|---|---|
| 1778010341 | 10.56° C | 96% | 1008 hPa | 0 mm | 0 m/s | 0 W/m² | - |
| 1778009654 | 11.11° C | 95% | 1007.9 hPa | 0 mm | 0 m/s | 0 W/m² | - |
| 1778008965 | 11.67° C | 94% | 1007.8 hPa | 0 mm | 0 m/s | 0 W/m² | - |
| 1778008278 | 11.67° C | 93% | 1007.7 hPa | 0 mm | 0 m/s | 0 W/m² | - |
| 1778007590 | 12.22° C | 92% | 1007.5 hPa | 0 mm | 0 m/s | 1 W/m² | - |
| 1778006903 | 12.78° C | 91% | 1007.2 hPa | 0 mm | 0 m/s | 2 W/m² | - |
| 1778006229 | 13.33° C | 90% | 1007.4 hPa | 0 mm | 0 m/s | 12 W/m² | - |
| 1778005529 | 13.89° C | 88% | 1007.2 hPa | 0 mm | 0 m/s | 28 W/m² | - |
| 1778004841 | 13.89° C | 87% | 1007 hPa | 0 mm | 0 m/s | 29 W/m² | - |
| 1778004153 | 13.89° C | 87% | 1007.2 hPa | 0 mm | 0 m/s | 13 W/m² | - |
| 1778003466 | 13.89° C | 88% | 1007.2 hPa | 0 mm | 0 m/s | 20 W/m² | - |
| 1778002730 | 14.44° C | 87% | 1007 hPa | 0 mm | 0 m/s | 27 W/m² | - |
| 1778002028 | 14.44° C | 85% | 1006.8 hPa | 0 mm | 0 m/s | 30 W/m² | - |
| 1778001340 | 14.44° C | 82% | 1006.8 hPa | 0 mm | 0 m/s | 46 W/m² | - |
| 1778000653 | 15° C | 84% | 1006.7 hPa | 0 mm | 0.45 m/s, 174° | 56 W/m² | - |
| 1777999966 | 15.56° C | 79% | 1006.7 hPa | 0 mm | 0 m/s | 71 W/m² | - |
| 1777999229 | 16.11° C | 77% | 1006.8 hPa | 0 mm | 0 m/s | 128 W/m² | - |
| 1777998527 | 15° C | 77% | 1007 hPa | 0.25 mm | 0 m/s | 195 W/m² | - |
| 1777997839 | 15° C | 82% | 1007.2 hPa | 0.25 mm | 1.34 m/s, 168° | 97 W/m² | - |
| 1777997152 | 14.44° C | 82% | 1007.1 hPa | 0.25 mm | 1.34 m/s, 186° | 86 W/m² | - |
| 1777996466 | 14.44° C | 84% | 1007 hPa | 0.51 mm | 1.34 m/s, 156° | 84 W/m² | - |
| 1777995779 | 14.44° C | 81% | 1007 hPa | 0.51 mm | 0.45 m/s, 216° | 91 W/m² | - |
| 1777995091 | 14.44° C | 78% | 1007 hPa | 0.51 mm | 0.89 m/s, 162° | 57 W/m² | - |
| 1777994416 | 15° C | 74% | 1006.9 hPa | 0.25 mm | 1.79 m/s, 204° | 40 W/m² | - |
| 1777993715 | 15.56° C | 75% | 1006.7 hPa | 0.25 mm | 1.34 m/s, 306° | 58 W/m² | - |
* Rain latest hour (hover to see other rain measurements)
** Current wind speed in m/s (hover to see current wind gust speed)